Home > Weather > Orléans > Past weeks

Flag for France Past Weather in Orléans, Centre-Val de Loire, France — Yesterday and Last 2 Weeks

Now
57 °F

Passing clouds.


Feels Like: 57 °F
Forecast: 55 / 73 °F
Wind: 2 mph from Southeast

Location: Orleans Airport

Current Time: May 27, 2016 at 4:28:42 AM

Latest Report: May 27, 2016 at 4:00 AM


Visibility: 4 mi

Pressure: 29.92 "Hg

Humidity: 94%

Dew Point: 55 °F

Location of OrléansLocation

Past Weather in Orléans — Graph

°F

Orléans Temperature Yesterday

Maximum temperature yesterday: 70 °F (at 12:00 PM)
Minimum temperature yesterday: 52 °F (at 2:00 AM)
Average temperature yesterday: 62 °F

High & Low Weather Summary for the Past Weeks

 TemperatureHumidityPressure
High77 °F (May 21, 6:00 PM)100% (May 12, 4:00 AM)30.27 "Hg (May 12, 4:00 AM)
Low34 °F (May 15, 6:00 AM)42% (May 15, 8:00 PM)29.50 "Hg (May 12, 4:30 AM)
Average56 °F79%29.95 "Hg
* Reported May 12 3:00 AM — May 27 3:00 AM, Orléans, Weather by CustomWeather, © 2016

Note: Actual official high and low records may vary slightly from our data, if they occured in-between our weather recording intervals... More about our weather records

Advertising

Orléans Weather History for the Previous 24 Hours

Scroll right to see more
 ConditionsComfort  
Time TempWeatherWind HumidityBarometerVisibility
3:00 AM
Fri, May 27
59 °FClear.7 mph88%29.92 "Hg10 mi
2:30 AM59 °FCool.6 mph94%29.92 "Hg4 mi
2:00 AM59 °FCool.8 mph94%29.92 "Hg5 mi
1:30 AM59 °FCool.3 mph94%29.92 "Hg4 mi
1:00 AM61 °FCool.3 mph94%29.92 "Hg4 mi
12:30 AM61 °FLight rain. Overcast.3 mph94%29.92 "Hg6 mi
12:00 AM61 °FClear.3 mph94%29.92 "Hg10 mi
11:30 PM
Thu, May 26
61 °FClear.No wind88%29.92 "Hg10 mi
11:00 PM63 °FClear.5 mph88%29.92 "Hg10 mi
10:30 PM63 °FMild.3 mph88%29.92 "HgN/A
10:00 PM64 °FSunny.3 mph83%29.92 "Hg10 mi
9:30 PM64 °FSunny.3 mph83%29.92 "Hg10 mi
9:00 PM66 °FSunny.3 mph78%29.92 "Hg10 mi
8:30 PM66 °FSunny.6 mph78%29.89 "Hg10 mi
8:00 PM66 °FSunny.6 mph83%29.89 "Hg10 mi
7:30 PM68 °FSunny.5 mph73%29.89 "Hg10 mi
7:00 PM68 °FSunny.6 mph73%29.89 "Hg10 mi
6:30 PM68 °FSunny.6 mph73%29.89 "Hg10 mi
6:00 PM68 °FPassing clouds.6 mph73%29.89 "HgN/A
5:30 PM70 °FPassing clouds.5 mph69%29.92 "HgN/A
5:00 PM70 °FSunny.7 mph69%29.89 "Hg10 mi
4:30 PM70 °FSunny.3 mph69%29.92 "Hg10 mi
4:00 PM70 °FOvercast.5 mph64%29.92 "HgN/A
3:30 PM70 °FPartly sunny.No wind69%29.92 "HgN/A
3:00 PM70 °FBroken clouds.No wind64%29.92 "HgN/A
2:30 PM70 °FMostly cloudy.1 mph64%29.92 "HgN/A
2:00 PM70 °FPartly sunny.1 mph64%29.92 "HgN/A
1:30 PM68 °FBroken clouds.5 mph64%29.92 "HgN/A
1:00 PM70 °FSunny.No wind64%29.92 "Hg10 mi
12:30 PM70 °FScattered clouds.No wind64%29.92 "HgN/A
12:00 PM70 °FScattered clouds.2 mph69%29.92 "HgN/A
11:30 AM68 °FPassing clouds.5 mph64%29.92 "HgN/A
11:00 AM66 °FSunny.2 mph73%29.92 "Hg10 mi
10:30 AM66 °FSunny.3 mph68%29.92 "Hg10 mi
10:00 AM64 °FSunny.3 mph78%29.92 "Hg10 mi
9:30 AM63 °FPassing clouds.3 mph77%29.92 "HgN/A
9:00 AM63 °FSunny.No wind77%29.95 "Hg10 mi
8:30 AM61 °FSunny.2 mph77%29.92 "Hg10 mi
8:00 AM57 °FCool.1 mph88%29.92 "HgN/A
7:30 AM54 °FSunny.3 mph94%29.92 "Hg10 mi
7:00 AM54 °FClear.3 mph88%29.92 "Hg10 mi
6:30 AM54 °FClear.3 mph88%29.92 "Hg10 mi
6:00 AM54 °FClear.5 mph88%29.92 "Hg10 mi
5:30 AM54 °FCool.6 mph94%29.92 "HgN/A
5:00 AM55 °FLight rain. Overcast.9 mph88%29.89 "HgN/A
4:30 AM55 °FCool.6 mph88%29.92 "HgN/A
4:00 AM55 °FPartly cloudy.5 mph82%29.92 "HgN/A
Weather by CustomWeather, © 2016

See weather overviewHow to use our weather pages